• In Belarus
  • List of Countries
  • For 7 days
  • Water Temperature
  • Satellite Maps
  • Weather Map
  • Weather Widgets
  • user-avatar
    Login

    Hourly Weather Stepanakert

    Today, 21 August, Monday

    Time Temperature Precipitation Wind Pressure Humidity
    00:00 +23°C° 0 mm 2 mps 693 mmHg 52%
    01:00 +21°C° 0 mm 2 mps 693 mmHg 52%
    02:00 +21°C° 0 mm 2 mps 693 mmHg 52%
    03:00 +22°C° 0 mm 1 mps 692 mmHg 51%
    04:00 +22°C° 0 mm 1 mps 692 mmHg 52%
    05:00 +22°C° 0 mm 1 mps 693 mmHg 52%
    06:00 +21°C° 0 mm 2 mps 693 mmHg 52%
    07:00 +24°C° 0 mm 2 mps 693 mmHg 48%
    08:00 +26°C° 0 mm 2 mps 693 mmHg 44%
    09:00 +29°C° 0 mm 2 mps 693 mmHg 39%
    10:00 +30°C° 0 mm 2 mps 693 mmHg 37%
    11:00 +31°C° 0 mm 3 mps 693 mmHg 35%
    12:00 +33°C° 0 mm 3 mps 693 mmHg 33%
    13:00 +34°C° 0 mm 3 mps 692 mmHg 32%
    14:00 +34°C° 0 mm 3 mps 692 mmHg 32%
    15:00 +35°C° 0 mm 3 mps 692 mmHg 32%
    16:00 +34°C° 0 mm 3 mps 691 mmHg 34%
    17:00 +33°C° 0 mm 3 mps 691 mmHg 36%
    18:00 +31°C° 0 mm 3 mps 691 mmHg 39%
    19:00 +29°C° 0 mm 2 mps 691 mmHg 43%
    20:00 +27°C° 0 mm 2 mps 691 mmHg 48%
    21:00 +25°C° 0 mm 2 mps 691 mmHg 53%
    22:00 +25°C° 0 mm 2 mps 691 mmHg 55%
    23:00 +24°C° 0 mm 2 mps 691 mmHg 57%

    Tomorrow, 22 August, Tuesday

    Time Temperature Precipitation Wind Pressure Humidity
    00:00 +24°C° 0 mm 2 mps 691 mmHg 59%
    01:00 +23°C° 0 mm 1 mps 691 mmHg 59%
    02:00 +23°C° 0 mm 1 mps 691 mmHg 59%
    03:00 +23°C° 0 mm 1 mps 691 mmHg 59%
    04:00 +23°C° 0 mm 1 mps 691 mmHg 58%
    05:00 +23°C° 0 mm 1 mps 691 mmHg 56%
    06:00 +23°C° 0 mm 1 mps 691 mmHg 55%
    07:00 +25°C° 0 mm 2 mps 691 mmHg 48%
    08:00 +27°C° 0 mm 2 mps 692 mmHg 40%
    09:00 +30°C° 0 mm 2 mps 692 mmHg 33%
    10:00 +31°C° 0 mm 2 mps 692 mmHg 30%
    11:00 +33°C° 0 mm 3 mps 692 mmHg 28%
    12:00 +34°C° 0 mm 3 mps 692 mmHg 25%
    13:00 +35°C° 0 mm 3 mps 691 mmHg 24%
    14:00 +35°C° 0 mm 3 mps 691 mmHg 24%
    15:00 +35°C° 0 mm 3 mps 690 mmHg 24%
    16:00 +34°C° 0 mm 3 mps 690 mmHg 26%
    17:00 +33°C° 0 mm 3 mps 690 mmHg 29%
    18:00 +31°C° 0 mm 2 mps 690 mmHg 32%
    19:00 +29°C° 0 mm 2 mps 690 mmHg 36%
    20:00 +27°C° 0 mm 2 mps 690 mmHg 40%
    21:00 +26°C° 0 mm 2 mps 690 mmHg 44%
    22:00 +25°C° 0 mm 2 mps 690 mmHg 46%
    23:00 +24°C° 0 mm 2 mps 690 mmHg 47%

    Day after tomorrow, 23 August, Wednesday

    Time Temperature Precipitation Wind Pressure Humidity
    00:00 +24°C° 0 mm 2 mps 690 mmHg 49%
    01:00 +23°C° 0 mm 2 mps 690 mmHg 50%
    02:00 +23°C° 0 mm 2 mps 690 mmHg 51%
    03:00 +23°C° 0 mm 1 mps 690 mmHg 52%
    04:00 +23°C° 0 mm 1 mps 690 mmHg 52%
    05:00 +23°C° 0 mm 1 mps 691 mmHg 52%
    06:00 +23°C° 0 mm 1 mps 691 mmHg 52%
    07:00 +25°C° 0 mm 2 mps 691 mmHg 44%
    08:00 +27°C° 0 mm 2 mps 692 mmHg 37%
    09:00 +29°C° 0 mm 2 mps 692 mmHg 29%
    10:00 +30°C° 0 mm 3 mps 692 mmHg 27%
    11:00 +33°C° 0 mm 3 mps 692 mmHg 25%
    12:00 +34°C° 0 mm 4 mps 692 mmHg 23%
    13:00 +34°C° 0 mm 4 mps 691 mmHg 23%
    14:00 +35°C° 0 mm 4 mps 691 mmHg 23%
    15:00 +35°C° 0 mm 4 mps 691 mmHg 22%
    16:00 +34°C° 0 mm 4 mps 691 mmHg 26%
    17:00 +33°C° 0 mm 4 mps 691 mmHg 29%
    18:00 +32°C° 0 mm 4 mps 690 mmHg 32%
    19:00 +29°C° 0 mm 3 mps 691 mmHg 37%
    20:00 +27°C° 0 mm 2 mps 691 mmHg 42%
    21:00 +25°C° 0 mm 1 mps 691 mmHg 46%
    22:00 +24°C° 0 mm 1 mps 691 mmHg 47%
    23:00 +24°C° 0 mm 1 mps 692 mmHg 48%

    24 August, Thursday

    Time Temperature Precipitation Wind Pressure Humidity
    00:00 +23°C° 0 mm 2 mps 692 mmHg 49%
    01:00 +23°C° 0 mm 2 mps 692 mmHg 50%
    02:00 +23°C° 0 mm 2 mps 692 mmHg 51%
    03:00 +23°C° 0 mm 2 mps 692 mmHg 51%
    04:00 +23°C° 0 mm 1 mps 693 mmHg 51%
    05:00 +23°C° 0 mm 1 mps 693 mmHg 51%
    06:00 +23°C° 0 mm 1 mps 693 mmHg 51%
    07:00 +25°C° 0 mm 2 mps 694 mmHg 44%
    08:00 +27°C° 0 mm 2 mps 694 mmHg 36%
    09:00 +29°C° 0 mm 2 mps 695 mmHg 28%
    10:00 +30°C° 0 mm 3 mps 695 mmHg 26%
    11:00 +33°C° 0 mm 3 mps 695 mmHg 24%
    12:00 +34°C° 0 mm 4 mps 694 mmHg 21%
    13:00 +34°C° 0 mm 4 mps 694 mmHg 21%
    14:00 +34°C° 0 mm 5 mps 694 mmHg 21%
    15:00 +35°C° 0 mm 5 mps 694 mmHg 21%
    16:00 +33°C° 0 mm 5 mps 693 mmHg 24%
    17:00 +32°C° 0 mm 4 mps 693 mmHg 27%
    18:00 +29°C° 0 mm 4 mps 693 mmHg 30%
    19:00 +27°C° 0 mm 3 mps 693 mmHg 35%
    20:00 +26°C° 0 mm 3 mps 694 mmHg 40%
    21:00 +24°C° 0 mm 2 mps 694 mmHg 45%
    22:00 +23°C° 0 mm 2 mps 694 mmHg 47%
    23:00 +23°C° 0 mm 2 mps 694 mmHg 48%

    25 August, Friday

    Time Temperature Precipitation Wind Pressure Humidity
    00:00 +21°C° 0 mm 2 mps 694 mmHg 50%
    01:00 +21°C° 0 mm 2 mps 694 mmHg 50%
    02:00 +20°C° 0 mm 2 mps 694 mmHg 51%
    03:00 +21°C° 0 mm 1 mps 694 mmHg 51%
    04:00 +21°C° 0 mm 1 mps 694 mmHg 49%
    05:00 +21°C° 0 mm 1 mps 694 mmHg 46%
    06:00 +21°C° 0 mm 1 mps 695 mmHg 44%
    07:00 +24°C° 0 mm 2 mps 695 mmHg 37%
    08:00 +26°C° 0 mm 2 mps 695 mmHg 31%
    09:00 +28°C° 0 mm 2 mps 696 mmHg 24%
    10:00 +29°C° 0 mm 3 mps 696 mmHg 22%
    11:00 +31°C° 0 mm 3 mps 695 mmHg 20%
    12:00 +33°C° 0 mm 4 mps 695 mmHg 18%
    13:00 +33°C° 0 mm 4 mps 695 mmHg 19%
    14:00 +34°C° 0 mm 4 mps 694 mmHg 19%
    15:00 +34°C° 0 mm 4 mps 694 mmHg 19%
    16:00 +33°C° 0 mm 4 mps 694 mmHg 21%
    17:00 +30°C° 0 mm 4 mps 694 mmHg 24%
    18:00 +29°C° 0 mm 3 mps 694 mmHg 26%
    19:00 +27°C° 0 mm 3 mps 694 mmHg 32%
    20:00 +25°C° 0 mm 3 mps 694 mmHg 38%
    21:00 +23°C° 0 mm 2 mps 694 mmHg 43%
    22:00 +23°C° 0 mm 2 mps 694 mmHg 46%
    23:00 +21°C° 0 mm 2 mps 694 mmHg 49%

    26 August, Saturday

    Time Temperature Precipitation Wind Pressure Humidity
    00:00 +20°C° 0 mm 2 mps 694 mmHg 52%
    01:00 +20°C° 0 mm 2 mps 694 mmHg 52%
    02:00 +20°C° 0 mm 2 mps 694 mmHg 52%
    03:00 +19°C° 0 mm 2 mps 694 mmHg 52%
    04:00 +20°C° 0 mm 2 mps 694 mmHg 49%
    05:00 +20°C° 0 mm 2 mps 695 mmHg 47%
    06:00 +20°C° 0 mm 2 mps 695 mmHg 44%
    07:00 +23°C° 0 mm 2 mps 695 mmHg 39%
    08:00 +25°C° 0 mm 3 mps 696 mmHg 33%
    09:00 +28°C° 0 mm 3 mps 696 mmHg 28%
    10:00 +29°C° 0 mm 3 mps 696 mmHg 27%
    11:00 +30°C° 0 mm 4 mps 695 mmHg 25%
    12:00 +32°C° 0 mm 4 mps 695 mmHg 24%
    13:00 +32°C° 0 mm 4 mps 695 mmHg 24%
    14:00 +32°C° 0 mm 5 mps 694 mmHg 24%
    15:00 +33°C° 0 mm 5 mps 694 mmHg 24%
    16:00 +30°C° 0 mm 4 mps 694 mmHg 27%
    17:00 +29°C° 0 mm 4 mps 694 mmHg 29%
    18:00 +28°C° 0 mm 4 mps 693 mmHg 32%
    19:00 +26°C° 0 mm 3 mps 694 mmHg 37%
    20:00 +24°C° 0 mm 3 mps 694 mmHg 42%
    21:00 +23°C° 0 mm 2 mps 694 mmHg 47%
    22:00 +21°C° 0 mm 2 mps 694 mmHg 48%
    23:00 +21°C° 0 mm 2 mps 694 mmHg 50%
    Show more